This is the latest recevied weather packets stored in our database for station/object EW1958. If no packets are shown the sender has not sent any weather packets the latest 10 day(s).
| Time | Temp. | Humidity | Pressure | Rain* | Wind** | Luminosity | Snow |
|---|---|---|---|---|---|---|---|
| 1788400521 | 13.89° C | 94% | 1008.2 hPa | 0.25 mm | - | - | - |
| 1788400336 | 13.89° C | 94% | 1008.1 hPa | 0.25 mm | - | - | - |
| 1788398971 | 14.44° C | 93% | 1007.9 hPa | 0.25 mm | - | - | - |
| 1788398834 | 14.44° C | 94% | 1007.7 hPa | 0.25 mm | - | - | - |
| 1788398196 | 14.44° C | 95% | 1007.6 hPa | 0.25 mm | - | - | - |
| 1788397778 | 14.44° C | 95% | 1007.3 hPa | 0 mm | - | - | - |
| 1788397772 | 14.44° C | 95% | 1007.5 hPa | 0.25 mm | - | - | - |
| 1788397163 | 14.44° C | 96% | 1007.1 hPa | 0 mm | - | - | - |
| 1788396864 | 14.44° C | 96% | 1007.1 hPa | 0 mm | - | - | - |
| 1788396563 | 14.44° C | 95% | 1006.9 hPa | 0 mm | - | - | - |
| 1788396263 | 14.44° C | 95% | 1006.7 hPa | 0.25 mm | - | - | - |
| 1788395964 | 14.44° C | 95% | 1006.6 hPa | 0.76 mm | - | - | - |
| 1788395663 | 14.44° C | 95% | 1006.7 hPa | 1.02 mm | - | - | - |
| 1788395522 | 14.44° C | 95% | 1006.6 hPa | 1.27 mm | - | - | - |
| 1788395190 | 14.44° C | 95% | 1006.6 hPa | 1.52 mm | - | - | - |
| 1788394888 | 14.44° C | 95% | 1006.7 hPa | 1.52 mm | - | - | - |
| 1788394586 | 14.44° C | 95% | 1006.7 hPa | 1.78 mm | - | - | - |
| 1788394289 | 14.44° C | 95% | 1006.9 hPa | 1.78 mm | - | - | - |
| 1788393859 | 14.44° C | 95% | 1006.9 hPa | 2.03 mm | - | - | - |
| 1788393559 | 14.44° C | 95% | 1007 hPa | 2.29 mm | - | - | - |
| 1788393259 | 14.44° C | 95% | 1007 hPa | 2.29 mm | - | - | - |
| 1788392960 | 14.44° C | 94% | 1007.4 hPa | 2.54 mm | - | - | - |
| 1788392660 | 14.44° C | 94% | 1007.5 hPa | 2.29 mm | - | - | - |
| 1788392519 | 14.44° C | 94% | 1007.8 hPa | 2.03 mm | - | - | - |
| 1788392058 | 14.44° C | 94% | 1007.8 hPa | 2.03 mm | - | - | - |
* Rain latest hour (hover to see other rain measurements)
** Current wind speed in m/s (hover to see current wind gust speed)